Weather in Starosemeykino

Russia / Samara Oblast     53°24′50″N   50°16′27″E
temp.,
°C
wind,
m/s
gust,
m/s
humid.,
%
clouds,
%
prec.,
mm/h
press.,
hPa
HPBL,
m
3 march, wed
wed301:00−1w2397100 0.3 100277
04:00−3w3594100 0.3 1002139
07:00−6w3395100 0.0 100244
10:00−4wnw499472 0.0 1003378
13:00−2wnw698694 0.0 1004793
16:00−4wnw6108697 0.1 1005815
19:00−7wnw5119180 0.0 1006302
22:00−7wnw4109373 0.1 1008316
4 march, thu
thu401:00−9wnw499393 0.1 1008209
04:00−12sw339470 0.1 100841
07:00−11sw389380 0.0 1006168
10:00−6sw6129188 0.1 1005549
13:00−1sw81288100 0.2 1003953
16:00−1sw81594100 0.5 1001983
19:00+1wsw71488100 0.4 1000892
22:000wsw71397100 0.8 1001790
5 march, fri
fri501:000wsw71395100 0.7 1001745
04:00−1sw61291100 1.0 1001559
07:00−1sw51296100 0.8 1000575
10:000sw61295100 2.3 999690
13:00+1sw513100100 1.5 998621
16:00−1nw71092100 2.3 1001653
19:00−7nw499295 0.1 1006251
22:00−11nw339478 0.1 101127
6 march, sat
sat601:00−13nw229177 0.0 101321
04:00−15nw119282 0.0 101420
07:00−15e119395 0.0 101420
10:00−11e249098 0.0 1013222
13:00−8e2385100 0.0 1012360
16:00−8ne2284100 0.0 1010363
19:00−14ne019363 0.0 101021
22:00−15w129331 0.0 101120
7 march, sun
sun701:00−11wnw4109467 0.1 1011304
04:00−17wnw499244 0.1 1012171
07:00−19w45950 0.0 101393
10:00−14w37900 0.0 1015274
13:00−8sw478126 0.0 1015789
16:00−9ssw6118333 0.0 1013575
19:00−11ssw71584100 0.0 1011525
22:00−8ssw81590100 0.1 1008770